Location: UBC Liquid-Mirror Observatory
(49.2876°N, 122.5728°W)
Time: 14:23:30
(UTC-07:00)

Amateur Radio Satellites - All Passes

Search period start: 22 May 2017 13:53
Search period end: 23 May 2017 13:53
Location: UBC Liquid-Mirror Observatory, 49.2876°N, 122.5728°W

Satellite Date Start Highest point End Downlink Frequencies (MHz)
Time Altitude Azimuth
Oscar 19 22 May 13:54:51 14:00:03 70° 257° (WSW) 14:05:16 437.125/150
LO-87 22 May 13:56:05 13:57:11 11° 301° (WNW) 13:58:18 145.935 - 145.965
YUBILEINY 22 May 13:57:30 14:06:11 64° 268° (W) 14:14:52 435.215
O/OREOS (USA 219) 22 May 14:02:31 14:06:40 33° 53° (NE) 14:10:45 437.305
BUGSAT 1 22 May 14:03:23 14:06:16 19° 268° (W) 14:09:10 437.445
50 SAT 22 May 14:09:34 14:13:00 87° 101° (E) 14:16:24 437.505
DX 1 22 May 14:13:58 14:18:16 57° 102° (ESE) 14:22:31 434.975-435.025
UKube-1 22 May 14:16:06 14:20:14 42° 99° (E) 14:24:19 .
Gurwin Techsat 1B 22 May 14:34:21 14:39:32 53° 260° (W) 14:44:46 435.225
NO-84 22 May 14:34:34 14:38:19 34° 1° (N) 14:41:47 435.350 FM
AO-85 22 May 14:45:57 14:49:56 71° 234° (SW) 14:54:05 145.980
ITAMSAT 1 22 May 14:46:35 14:51:20 38° 65° (ENE) 14:56:06 435.822/435.867
BEESAT 2 22 May 14:55:16 14:58:47 27° 37° (NE) 15:02:19 435.950
VELOX 1 22 May 14:59:58 15:03:24 23° 298° (WNW) 15:06:49 145.980
RS-15 22 May 15:13:28 15:19:57 17° 267° (W) 15:26:19 29.354- 29.394
BEESAT 22 May 15:14:14 15:17:39 19° 91° (E) 15:21:02 436.000
AO-7 22 May 15:21:27 15:29:44 81° 67° (ENE) 15:38:05 .
BEESAT 3 22 May 15:26:03 15:30:06 86° 238° (WSW) 15:34:06 437.485
SPROUT 22 May 15:31:08 15:32:45 12° 304° (NW) 15:34:23 437.525
MOZHAYETS 4 22 May 15:37:40 15:40:57 19° 90° (E) 15:44:11
Oscar 19 22 May 15:39:16 15:40:19 11° 276° (W) 15:41:23 437.125/150
O/OREOS (USA 219) 22 May 15:41:58 15:46:05 34° 253° (WSW) 15:50:08 437.305
DX 1 22 May 15:51:01 15:54:04 19° 300° (WNW) 15:57:07 434.975-435.025
UKube-1 22 May 15:52:35 15:56:02 24° 298° (WNW) 15:59:29 .
YUBILEINY 22 May 15:56:49 16:01:08 15° 290° (WNW) 16:05:27 435.215
NO-84 22 May 16:12:33 16:16:23 60° 22° (NNE) 16:19:53 435.350 FM
ITUPSAT 1 22 May 16:14:17 16:19:05 63° 102° (ESE) 16:23:51 437.325
ITAMSAT 1 22 May 16:26:09 16:30:50 35° 264° (W) 16:35:35 435.822/435.867
BEESAT 2 22 May 16:32:49 16:36:47 50° 237° (WSW) 16:40:41 435.950
BEESAT 22 May 16:51:05 16:55:50 62° 289° (WNW) 17:00:33 436.000
XW-2D 22 May 16:54:59 16:56:12 11° 58° (ENE) 16:57:25 145.860 - 145.880
XW-2B 22 May 17:02:09 17:03:56 13° 59° (ENE) 17:05:42 145.730 - 145.750
KKS-1 22 May 17:04:13 17:07:33 21° 92° (E) 17:10:53 437.445
BEESAT 3 22 May 17:05:44 17:07:01 11° 251° (WSW) 17:08:17 437.485
DOVE 4 22 May 17:11:07 17:15:11 31° 67° (ENE) 17:19:05 437.250
MOZHAYETS 4 22 May 17:13:53 17:18:29 60° 289° (WNW) 17:23:03
XW-2C 22 May 17:14:42 17:17:13 17° 62° (ENE) 17:19:46 145.795 - 145.815
AO-7 22 May 17:16:41 17:23:23 27° 268° (W) 17:30:10 .
XW-2F 22 May 17:17:12 17:19:45 17° 62° (ENE) 17:22:18 145.980 - 146.000
NUDT-PHONESAT 22 May 17:30:18 17:32:58 19° 63° (ENE) 17:35:39 437.300
KAITUO 1B 22 May 17:32:14 17:35:03 20° 64° (ENE) 17:37:54 145.475/437.950
LilacSat-2 22 May 17:46:24 17:49:55 36° 69° (ENE) 17:53:30 437.200
CUBESAT XI-V 22 May 17:47:30 17:52:10 63° 101° (E) 17:56:46 437.345
STARS 22 May 17:47:50 17:51:28 25° 94° (E) 17:55:05 437.465
CUTE-I 22 May 17:48:01 17:53:00 43° 66° (ENE) 17:58:00 437.470
NO-84 22 May 17:50:32 17:53:44 29° 224° (SW) 17:56:42 435.350 FM
ITUPSAT 1 22 May 17:52:56 17:56:29 21° 301° (WNW) 18:00:02 437.325
HO-68 22 May 17:55:31 18:01:13 27° 52° (NE) 18:06:57 435.675
XW-2D 22 May 18:25:57 18:29:46 85° 253° (WSW) 18:33:38 145.860 - 145.880
BEESAT 22 May 18:31:30 18:32:40 11° 309° (NW) 18:33:51 436.000
XW-2B 22 May 18:33:48 18:37:35 72° 258° (WSW) 18:41:26 145.730 - 145.750
KKS-1 22 May 18:40:06 18:44:23 49° 291° (WNW) 18:48:40 437.445
SEEDS 22 May 18:44:00 18:46:55 18° 61° (ENE) 18:49:52 437.485
XW-2C 22 May 18:47:22 18:51:04 49° 261° (W) 18:54:50 145.795 - 145.815
DOVE 4 22 May 18:48:35 18:52:51 34° 264° (W) 18:56:55 437.250
XW-2F 22 May 18:49:51 18:53:33 48° 261° (W) 18:57:17 145.980 - 146.000
NUDT-PHONESAT 22 May 19:03:05 19:06:37 41° 262° (W) 19:10:11 437.300
KAITUO 1B 22 May 19:05:17 19:08:50 39° 262° (W) 19:12:26 145.475/437.950
XW-2A 22 May 19:10:29 19:13:34 35° 70° (ENE) 19:16:41 145.665 - 145.685
CUBEBUG 2 22 May 19:12:32 19:15:56 25° 64° (ENE) 19:19:23 437.445
CUTE 1.7 + AOD 2 22 May 19:20:07 19:24:18 56° 72° (ENE) 19:28:32 437.475
LilacSat-2 22 May 19:21:20 19:24:19 22° 267° (W) 19:27:21 437.200
ZACube-1 22 May 19:21:23 19:23:22 13° 57° (ENE) 19:25:20 437.345
STARS 22 May 19:23:50 19:27:56 40° 292° (WNW) 19:32:02 437.465
CUBESAT XI-V 22 May 19:25:46 19:29:06 20° 300° (WNW) 19:32:25 437.345
CUTE-I 22 May 19:28:26 19:33:10 32° 265° (W) 19:37:55 437.470
UWE-3 22 May 19:32:18 19:35:43 25° 64° (ENE) 19:39:12 435.000/436.395/437.385
HO-68 22 May 19:41:02 19:48:14 83° 254° (WSW) 19:55:30 435.675
AAUSAT CUBESAT 2 22 May 19:55:52 19:59:50 43° 70° (ENE) 20:03:50 437.432
SEEDS 22 May 20:18:01 20:22:13 57° 260° (W) 20:26:27 437.485
Oscar 11 22 May 20:22:34 20:26:30 35° 68° (ENE) 20:30:29 .
STRAND 1 22 May 20:37:22 20:42:29 63° 102° (ESE) 20:47:36 437.568
PCSat 22 May 20:40:47 20:45:57 48° 117° (ESE) 20:51:10 145.827
AO-73 22 May 20:43:28 20:47:38 66° 73° (ENE) 20:51:55 145.935
XW-2A 22 May 20:44:13 20:46:28 17° 268° (W) 20:48:44 145.665 - 145.685
CUBEBUG 2 22 May 20:48:33 20:52:24 37° 263° (W) 20:56:22 437.445
ZACube-1 22 May 20:54:46 20:58:58 87° 256° (WSW) 21:03:19 437.345
DELFI C3 22 May 20:55:35 20:58:44 23° 64° (ENE) 21:01:54 145.870
CUTE 1.7 + AOD 2 22 May 20:57:38 21:00:29 17° 270° (W) 21:03:23 437.475
UWE-3 22 May 21:08:07 21:12:01 38° 263° (W) 21:16:01 435.000/436.395/437.385
M-CUBED/EXP-1 PRIME 22 May 21:29:20 21:32:23 31° 103° (ESE) 21:35:20 437.505
AAUSAT CUBESAT 2 22 May 21:32:17 21:35:30 21° 268° (W) 21:38:44 437.432
HO-68 22 May 21:32:21 21:37:02 18° 274° (W) 21:41:47 435.675
FO-29 22 May 21:40:43 21:43:49 14° 86° (E) 21:47:03 435.910
Oscar 11 22 May 21:58:58 22:02:42 28° 266° (W) 22:06:28 .
EO-88 22 May 22:02:47 22:06:26 82° 78° (ENE) 22:10:08 145.990 - 145.960
TIGRISAT 22 May 22:11:59 22:14:53 16° 90° (E) 22:17:48 435.000
STRAND 1 22 May 22:17:19 22:21:15 23° 301° (WNW) 22:25:11 437.568
ISS 22 May 22:19:15 22:21:18 16° 138° (SE) 22:23:21 437.550
AO-73 22 May 22:22:03 22:24:23 14° 272° (W) 22:26:44 145.935
PCSat 22 May 22:24:28 22:29:30 38° 317° (NW) 22:34:35 145.827
Tancredo 1 22 May 22:28:39 22:31:11 23° 144° (SE) 22:33:43 437.200
DELFI C3 22 May 22:29:35 22:33:19 38° 262° (W) 22:37:06 145.870
PRISM 22 May 22:33:04 22:36:43 30° 96° (E) 22:40:18 437.425
UNISAT 6 22 May 22:41:32 22:45:39 32° 96° (E) 22:49:48 437.425
VELOX 1 22 May 22:51:28 22:52:33 11° 54° (NE) 22:53:38 145.980
LO-87 22 May 23:00:27 23:03:55 54° 73° (ENE) 23:07:25 145.935 - 145.965
M-CUBED/EXP-1 PRIME 22 May 23:04:07 23:06:44 21° 302° (WNW) 23:09:16 437.505
ESTCUBE 1 22 May 23:09:28 23:13:48 45° 69° (ENE) 23:18:09 437.505/2401.250
SPROUT 22 May 23:16:24 23:19:03 16° 60° (ENE) 23:21:42 437.525
FO-29 22 May 23:23:38 23:29:44 73° 104° (ESE) 23:36:37 435.910
SO-50 22 May 23:26:40 23:30:16 23° 115° (ESE) 23:33:49 436.795
DX 1 22 May 23:40:06 23:41:59 13° 55° (NE) 23:43:51 434.975-435.025
TIGRISAT 22 May 23:47:29 23:52:00 67° 287° (WNW) 23:56:35 435.000
ISS 22 May 23:54:03 23:57:20 69° 157° (SSE) 00:00:37 437.550
Tancredo 1 23 May 00:03:37 00:06:42 83° 344° (NNW) 00:09:48 437.200
EO-79 23 May 00:03:48 00:06:41 18° 91° (E) 00:09:33 145.935-145.965
PRISM 23 May 00:08:24 00:11:57 29° 295° (WNW) 00:15:29 437.425
PCSat 23 May 00:11:27 00:14:30 15° 342° (NNW) 00:17:32 145.827
UNISAT 6 23 May 00:18:17 00:22:21 33° 294° (WNW) 00:26:28 437.425
VELOX 1 23 May 00:23:48 00:28:12 70° 73° (ENE) 00:32:37 145.980
AIST 2D 23 May 00:33:02 00:36:37 67° 102° (ESE) 00:40:10 435.315
LO-87 23 May 00:36:03 00:37:42 13° 270° (W) 00:39:22 145.935 - 145.965
50 SAT 23 May 00:45:27 00:48:53 61° 73° (ENE) 00:52:20 437.505
ESTCUBE 1 23 May 00:47:09 00:50:48 24° 267° (W) 00:54:29 437.505/2401.250
SPROUT 23 May 00:50:17 00:54:29 66° 258° (WSW) 00:58:44 437.525
NANOSAT C BR1 23 May 00:51:00 00:55:05 46° 99° (E) 00:59:10 145.865
POLYITAN 1 23 May 00:51:25 00:55:36 51° 100° (E) 00:59:46 437.675
QB50P2 23 May 00:59:48 01:04:04 67° 102° (ESE) 01:08:19 145.880/145.840
DUCHIFAT 1 23 May 01:04:01 01:08:11 56° 100° (E) 01:12:21 145.980
SO-50 23 May 01:05:51 01:10:23 60° 314° (NW) 01:14:53 436.795
YUBILEINY 23 May 01:08:00 01:15:29 34° 82° (E) 01:23:00 435.215
FO-29 23 May 01:09:37 01:14:25 26° 301° (WNW) 01:19:40 435.910
DX 1 23 May 01:13:07 01:17:28 85° 76° (ENE) 01:21:52 434.975-435.025
UKube-1 23 May 01:14:10 01:18:25 62° 72° (ENE) 01:22:42 .
RS-15 23 May 01:20:16 01:26:46 16° 93° (E) 01:33:16 29.354- 29.394
TIGRISAT 23 May 01:26:50 01:27:51 11° 306° (NW) 01:28:53 435.000
ISS 23 May 01:30:41 01:33:56 55° 356° (N) 01:37:10 437.550
EO-79 23 May 01:38:37 01:42:47 54° 289° (WNW) 01:46:56 145.935-145.965
BUGSAT 1 23 May 01:39:13 01:43:08 43° 99° (E) 01:47:06 437.445
Tancredo 1 23 May 01:39:38 01:42:40 52° 2° (N) 01:45:41 437.200
ITUPSAT 1 23 May 01:49:10 01:52:25 19° 58° (ENE) 01:55:42 437.325
PCSat 23 May 01:58:04 02:00:20 12° 9° (N) 02:02:35 145.827
Oscar 19 23 May 02:02:26 02:06:58 30° 94° (E) 02:11:28 437.125/150
VELOX 1 23 May 02:02:37 02:05:08 15° 271° (W) 02:07:39 145.980
AIST 2D 23 May 02:07:53 02:09:20 12° 300° (WNW) 02:10:46 435.315
50 SAT 23 May 02:21:13 02:22:09 11° 271° (W) 02:23:05 437.505
BEESAT 23 May 02:24:13 02:28:31 35° 65° (ENE) 02:32:51 436.000
NANOSAT C BR1 23 May 02:27:17 02:30:33 22° 297° (WNW) 02:33:48 145.865
POLYITAN 1 23 May 02:27:55 02:31:05 20° 298° (WNW) 02:34:13 437.675
QB50P2 23 May 02:36:44 02:39:23 16° 300° (WNW) 02:42:02 145.880/145.840
DUCHIFAT 1 23 May 02:40:33 02:43:29 19° 299° (WNW) 02:46:25 145.980
MOZHAYETS 4 23 May 02:43:12 02:47:09 29° 64° (ENE) 02:51:08
Gurwin Techsat 1B 23 May 02:46:05 02:51:10 44° 98° (E) 02:56:14 435.225
SO-50 23 May 02:48:36 02:51:44 18° 336° (NNW) 02:54:51 436.795
UKube-1 23 May 02:52:11 02:54:51 16° 270° (W) 02:57:32 .
DX 1 23 May 02:52:39 02:54:16 12° 272° (W) 02:55:55 434.975-435.025
YUBILEINY 23 May 03:03:04 03:11:43 65° 285° (WNW) 03:20:29 435.215
ISS 23 May 03:07:20 03:10:39 77° 16° (NNE) 03:13:55 437.550
BUGSAT 1 23 May 03:15:07 03:18:17 22° 297° (WNW) 03:21:28 437.445
Tancredo 1 23 May 03:15:29 03:18:35 79° 200° (SSW) 03:21:39 437.200
AO-7 23 May 03:19:28 03:25:12 20° 87° (E) 03:30:54 .
CUBESAT XI-V 23 May 03:19:41 03:22:25 16° 57° (ENE) 03:25:11 437.345
RS-15 23 May 03:24:39 03:36:27 61° 117° (ESE) 03:48:29 29.354- 29.394
ITUPSAT 1 23 May 03:24:59 03:29:44 72° 257° (WSW) 03:34:33 437.325
PCSat 23 May 03:41:16 03:45:45 25° 34° (NE) 03:50:12 145.827
Oscar 19 23 May 03:41:32 03:46:27 44° 293° (WNW) 03:51:18 437.125/150
BEESAT 23 May 04:02:01 04:06:18 33° 264° (W) 04:10:38 436.000
KKS-1 23 May 04:05:54 04:09:50 32° 65° (ENE) 04:13:46 437.445
MOZHAYETS 4 23 May 04:19:53 04:24:11 39° 263° (W) 04:28:32
O/OREOS (USA 219) 23 May 04:20:33 04:23:22 16° 100° (E) 04:26:12 437.305
Gurwin Techsat 1B 23 May 04:26:19 04:30:59 32° 297° (WNW) 04:35:39 435.225
SO-50 23 May 04:32:22 04:33:59 12° 1° (N) 04:35:36 436.795
ITAMSAT 1 23 May 04:33:53 04:39:03 60° 102° (ESE) 04:44:12 435.822/435.867
ISS 23 May 04:44:03 04:46:57 29° 215° (SW) 04:49:50 437.550
STARS 23 May 04:48:05 04:52:06 37° 67° (ENE) 04:56:08 437.465
Tancredo 1 23 May 04:51:52 04:53:58 17° 220° (SW) 04:56:03 437.200
CUBESAT XI-V 23 May 04:54:26 04:59:10 85° 257° (WSW) 05:03:56 437.345
YUBILEINY 23 May 05:05:05 05:10:37 18° 310° (NW) 05:16:12 435.215
AO-85 23 May 05:07:13 05:08:23 11° 111° (ESE) 05:09:32 145.980
AO-7 23 May 05:10:51 05:19:17 80° 109° (ESE) 05:27:39 .
PCSat 23 May 05:24:22 05:29:51 87° 236° (SW) 05:35:17 145.827
RS-15 23 May 05:37:11 05:49:18 59° 324° (NW) 06:01:31 29.354- 29.394
KKS-1 23 May 05:42:24 05:46:22 32° 263° (W) 05:50:22 437.445
O/OREOS (USA 219) 23 May 05:57:39 06:02:15 70° 298° (WNW) 06:06:51 437.305
CUTE-I 23 May 06:02:47 06:04:32 11° 85° (E) 06:06:17 437.470
SO-50 23 May 06:12:56 06:16:12 19° 26° (NNE) 06:19:28 436.795
ITAMSAT 1 23 May 06:14:02 06:18:09 24° 301° (WNW) 06:22:16 435.822/435.867
XW-2C 23 May 06:17:00 06:18:57 13° 89° (E) 06:20:54 145.795 - 145.815
XW-2F 23 May 06:19:02 06:21:00 13° 89° (E) 06:22:57 145.980 - 146.000
STRAND 1 23 May 06:19:52 06:23:48 23° 59° (ENE) 06:27:45 437.568
STARS 23 May 06:24:51 06:28:32 26° 265° (W) 06:32:15 437.465
NUDT-PHONESAT 23 May 06:30:15 06:32:22 14° 90° (E) 06:34:29 437.300
KAITUO 1B 23 May 06:33:01 06:35:24 16° 90° (E) 06:37:46 145.475/437.950
CUBESAT XI-V 23 May 06:35:38 06:37:16 12° 275° (W) 06:38:55 437.345
DOVE 4 23 May 06:42:26 06:46:24 42° 98° (E) 06:50:23 437.250
AO-85 23 May 06:44:02 06:48:09 86° 128° (SE) 06:52:08 145.980
M-CUBED/EXP-1 PRIME 23 May 06:46:08 06:48:17 14° 54° (NE) 06:50:23 437.505
LilacSat-2 23 May 06:49:28 06:52:57 30° 96° (E) 06:56:24 437.200
BEESAT 3 23 May 06:56:33 07:00:16 39° 121° (ESE) 07:04:03 437.485
AO-7 23 May 07:04:18 07:11:20 32° 310° (NW) 07:18:22 .
HO-68 23 May 07:05:54 07:09:54 15° 84° (E) 07:13:54 435.675
PCSat 23 May 07:09:18 07:12:27 16° 256° (WSW) 07:15:37 145.827
XW-2D 23 May 07:28:21 07:32:14 80° 102° (ESE) 07:36:05 145.860 - 145.880
XW-2B 23 May 07:36:11 07:40:05 86° 282° (WNW) 07:43:56 145.730 - 145.750
O/OREOS (USA 219) 23 May 07:40:07 07:42:32 14° 320° (NW) 07:44:58 437.305
CUTE-I 23 May 07:40:10 07:45:31 74° 103° (ESE) 07:50:52 437.470
XW-2C 23 May 07:49:42 07:53:32 60° 287° (WNW) 07:57:21 145.795 - 145.815
XW-2F 23 May 07:51:43 07:55:32 60° 287° (WNW) 07:59:18 145.980 - 146.000
SO-50 23 May 07:52:57 07:57:28 69° 48° (NE) 08:01:58 436.795
RS-15 23 May 07:53:32 08:04:54 39° 356° (N) 08:16:08 29.354- 29.394
STRAND 1 23 May 07:57:33 08:02:35 61° 258° (WSW) 08:07:40 437.568
SEEDS 23 May 07:58:20 08:01:17 18° 90° (E) 08:04:12 437.485
XW-2A 23 May 08:00:56 08:03:39 21° 94° (E) 08:06:22 145.665 - 145.685
NUDT-PHONESAT 23 May 08:02:54 08:06:36 54° 288° (WNW) 08:10:17 437.300
BEESAT 2 23 May 08:04:38 08:08:37 72° 126° (SE) 08:12:40 435.950
KAITUO 1B 23 May 08:05:59 08:09:42 49° 288° (WNW) 08:13:22 145.475/437.950
M-CUBED/EXP-1 PRIME 23 May 08:17:59 08:22:17 85° 249° (WSW) 08:26:17 437.505
DOVE 4 23 May 08:20:42 08:23:54 22° 297° (WNW) 08:27:05 437.250
LilacSat-2 23 May 08:23:51 08:27:09 26° 294° (WNW) 08:30:25 437.200
AO-85 23 May 08:26:06 08:29:02 19° 329° (NNW) 08:31:56 145.980
AO-73 23 May 08:29:37 08:30:29 10° 85° (E) 08:31:20 145.935
CUBEBUG 2 23 May 08:34:18 08:38:23 33° 96° (E) 08:42:33 437.445
BEESAT 3 23 May 08:34:20 08:37:57 31° 321° (NW) 08:41:35 437.485
CUTE 1.7 + AOD 2 23 May 08:36:20 08:40:37 64° 101° (E) 08:44:50 437.475
ZACube-1 23 May 08:39:45 08:42:22 15° 88° (E) 08:45:00 437.345
HO-68 23 May 08:51:40 08:58:55 73° 105° (ESE) 09:06:06 435.675
UWE-3 23 May 08:52:47 08:56:51 32° 95° (E) 09:00:59 435.000/436.395/437.385
AO-7 23 May 08:59:12 09:01:31 11° 336° (NNW) 09:03:50 .
XW-2D 23 May 09:04:19 09:05:51 12° 301° (WNW) 09:07:22 145.860 - 145.880
AAUSAT CUBESAT 2 23 May 09:08:53 09:12:54 45° 98° (E) 09:16:52 437.432
XW-2B 23 May 09:12:51 09:13:37 10° 303° (WNW) 09:14:23 145.730 - 145.750
TIGRISAT 23 May 09:14:40 09:18:00 23° 62° (ENE) 09:21:23 435.000
CUTE-I 23 May 09:21:09 09:25:02 21° 303° (WNW) 09:28:55 437.470
PRISM 23 May 09:25:55 09:29:46 38° 68° (ENE) 09:33:37 437.425
SEEDS 23 May 09:33:08 09:37:17 52° 289° (WNW) 09:41:22 437.485
XW-2A 23 May 09:33:25 09:36:26 29° 292° (WNW) 09:39:26 145.665 - 145.685
SO-50 23 May 09:34:16 09:37:27 19° 247° (WSW) 09:40:39 436.795
Oscar 11 23 May 09:41:08 09:45:16 40° 97° (E) 09:49:22 .
FO-29 23 May 09:41:24 09:46:19 46° 66° (ENE) 09:51:23 435.910
BEESAT 2 23 May 09:43:36 09:46:48 22° 327° (NNW) 09:50:02 435.950
UNISAT 6 23 May 09:44:20 09:48:23 44° 69° (ENE) 09:52:32 437.425
M-CUBED/EXP-1 PRIME 23 May 09:56:44 09:57:12 10° 266° (W) 09:57:39 437.505
DELFI C3 23 May 10:02:45 10:05:40 19° 92° (E) 10:08:33 145.870
AO-73 23 May 10:02:53 10:07:25 81° 104° (ESE) 10:11:59 145.935
RS-15 23 May 10:08:53 10:20:53 51° 29° (NNE) 10:32:26 29.354- 29.394
CUBEBUG 2 23 May 10:10:57 10:14:58 33° 293° (WNW) 10:19:04 437.445
CUTE 1.7 + AOD 2 23 May 10:13:13 10:15:59 17° 300° (WNW) 10:18:45 437.475
ZACube-1 23 May 10:14:37 10:19:08 72° 286° (WNW) 10:23:41 437.345
BEESAT 3 23 May 10:15:26 10:16:44 11° 343° (NNW) 10:18:03 437.485
QB50P2 23 May 10:23:36 10:25:08 12° 56° (NE) 10:26:40 145.880/145.840
UWE-3 23 May 10:29:14 10:33:18 34° 293° (WNW) 10:37:27 435.000/436.395/437.385
HO-68 23 May 10:40:04 10:46:05 30° 306° (NW) 10:52:06 435.675
AAUSAT CUBESAT 2 23 May 10:44:56 10:48:06 21° 297° (WNW) 10:51:14 437.432
NO-84 23 May 10:46:20 10:50:27 43° 140° (SE) 10:54:24 435.350 FM
TIGRISAT 23 May 10:50:22 10:54:26 44° 261° (W) 10:58:37 435.000
EO-79 23 May 11:00:01 11:03:19 23° 63° (ENE) 11:06:38 145.935-145.965
EO-88 23 May 11:00:59 11:04:39 59° 101° (E) 11:08:18 145.990 - 145.960
PRISM 23 May 11:01:50 11:05:10 23° 266° (W) 11:08:32 437.425
AIST 2D 23 May 11:11:07 11:14:29 44° 72° (ENE) 11:17:53 435.315
YUBILEINY 23 May 11:11:42 11:18:19 22° 55° (NE) 11:24:53 435.215
Oscar 11 23 May 11:17:37 11:21:14 26° 296° (WNW) 11:24:49 .
UNISAT 6 23 May 11:22:02 11:25:20 22° 268° (W) 11:28:41 437.425
FO-29 23 May 11:27:22 11:31:44 27° 267° (W) 11:36:11 435.910
DELFI C3 23 May 11:36:54 11:40:39 42° 290° (WNW) 11:44:21 145.870
AO-73 23 May 11:40:28 11:43:04 15° 302° (WNW) 11:45:41 145.935
NANOSAT C BR1 23 May 11:46:42 11:50:48 57° 72° (ENE) 11:54:56 145.865
Oscar 19 23 May 11:47:38 11:49:51 13° 51° (NE) 11:52:05 437.125/150
POLYITAN 1 23 May 11:47:38 11:51:47 64° 72° (ENE) 11:55:58 437.675
AO-85 23 May 11:51:41 11:53:14 12° 19° (NNE) 11:54:47 145.980
ZACube-1 23 May 11:53:11 11:54:38 11° 305° (NW) 11:56:06 437.345
QB50P2 23 May 11:56:02 12:00:14 84° 73° (ENE) 12:04:29 145.880/145.840
LO-87 23 May 11:56:36 11:59:56 36° 98° (E) 12:03:14 145.935 - 145.965
DUCHIFAT 1 23 May 11:59:25 12:03:33 70° 73° (ENE) 12:07:44 145.980
RS-15 23 May 12:22:08 12:34:23 76° 238° (WSW) 12:46:01 29.354- 29.394
NO-84 23 May 12:23:52 12:28:04 55° 339° (NNW) 12:32:00 435.350 FM
BUGSAT 1 23 May 12:32:39 12:36:32 51° 71° (ENE) 12:40:27 437.445
SPROUT 23 May 12:32:41 12:35:19 16° 90° (E) 12:37:57 437.525
Gurwin Techsat 1B 23 May 12:33:40 12:37:19 19° 56° (NE) 12:40:59 435.225
ESTCUBE 1 23 May 12:34:06 12:38:34 54° 100° (E) 12:42:59 437.505/2401.250
EO-79 23 May 12:34:53 12:38:51 42° 262° (W) 12:42:53 145.935-145.965
AO-7 23 May 12:35:30 12:39:32 15° 31° (NNE) 12:43:35 .
EO-88 23 May 12:35:54 12:37:54 14° 299° (WNW) 12:39:54 145.990 - 145.960
AIST 2D 23 May 12:45:52 12:47:57 15° 270° (W) 12:50:02 435.315
O/OREOS (USA 219) 23 May 12:46:27 12:48:32 13° 39° (NE) 12:50:35 437.305
DX 1 23 May 12:59:37 13:00:34 11° 87° (E) 13:01:30 434.975-435.025
BEESAT 2 23 May 13:04:34 13:05:39 11° 15° (NNE) 13:06:44 435.950
YUBILEINY 23 May 13:07:49 13:16:42 81° 79° (E) 13:25:34 435.215
Oscar 19 23 May 13:23:05 13:28:14 66° 71° (ENE) 13:33:25 437.125/150
NANOSAT C BR1 23 May 13:24:15 13:26:53 16° 270° (W) 13:29:32 145.865
POLYITAN 1 23 May 13:25:39 13:28:01 15° 271° (W) 13:30:24 437.675
LO-87 23 May 13:30:36 13:33:10 19° 296° (WNW) 13:35:43 145.935 - 145.965
AO-85 23 May 13:30:57 13:34:41 38° 42° (NE) 13:38:33 145.980
BEESAT 3 23 May 13:32:15 13:35:16 20° 31° (NNE) 13:38:16 437.485
QB50P2 23 May 13:35:22 13:36:38 11° 273° (W) 13:37:55 145.880/145.840
50 SAT 23 May 13:37:16 13:40:26 33° 98° (E) 13:43:32 437.505
DUCHIFAT 1 23 May 13:37:40 13:39:43 13° 272° (W) 13:41:47 145.980
